Flag for U.S.A. Weather past 2 weeks in Inglewood, California, U.S.A.

Now
81 °F

Sunny.


Feels Like: 81 °F
Forecast: 64 / 84 °F
Wind: 12 mph from Southwest

Location: Hawthorne Municipal Airport

Current Time: Jul 23, 2014 at 2:08:33 PM

Latest Report: Jul 23, 2014 at 12:53 PM


Visibility: 10 mi

Pressure: 29.96 "Hg

Humidity: 44%

Dew point: 57 °F

Location of InglewoodLocation

Historic Weather in Inglewood — Graph

°F

Inglewood temperature yesterday

Maximum temperature yesterday: 79 °F (at 4:53 PM)
Minimum temperature yesterday: 66 °F (at 4:53 AM)
Average temperature yesterday: 71 °F

Past Weeks' High & Low Weather Summary

 TemperatureHumidityPressure
High81 °F (Jul 23, 12:53 PM)90% (Jul 13, 5:53 AM)30.07 "Hg (Jul 13, 5:53 AM)
Low66 °F (Jul 18, 3:53 AM)44% (Jul 23, 12:53 PM)29.85 "Hg (Jul 13, 5:53 PM)
Average71 °F74%29.97 "Hg
* Reported Jul 8 12:53 PM — Jul 23 12:53 PM, Inglewood, Weather by CustomWeather, © 2014

Note: Actual official high and low records may vary slightly from our data, if they occured in-between our weather recording intervals... More about our weather records

Advertising

Inglewood weather history for previous 24 hours

 ConditionsComfort  
Time TempWeatherWind HumidityBarometerVisibility
12:53 PM
Jul 23
81 °FSunny.12 mph44%29.96 "Hg10 mi
11:53 AM79 °FSunny.10 mph52%29.98 "Hg10 mi
10:53 AM80 °FSunny.7 mph54%29.99 "Hg10 mi
9:53 AM79 °FSunny.No wind48%30.00 "Hg10 mi
8:53 AM76 °FSunny.No wind58%30.00 "Hg10 mi
7:53 AM72 °FSunny.No wind68%30.00 "Hg10 mi
6:53 AM69 °FClear.No wind76%30.00 "Hg10 mi
5:53 AM67 °FClear.No wind85%29.99 "Hg10 mi
3:53 AM66 °FClear.No wind87%29.98 "Hg10 mi
2:53 AM67 °FClear.No wind85%29.99 "Hg10 mi
1:53 AM67 °FClear.No wind85%29.99 "Hg10 mi
12:53 AM69 °FClear.No wind79%29.99 "Hg10 mi
10:53 PM
Jul 22
71 °FClear.5 mph71%29.99 "Hg10 mi
9:53 PM71 °FClear.5 mph68%29.99 "Hg10 mi
8:53 PM72 °FSunny.8 mph66%29.98 "Hg10 mi
7:53 PM74 °FSunny.7 mph60%29.98 "Hg10 mi
6:53 PM75 °FSunny.12 mph60%29.98 "Hg10 mi
5:53 PM78 °FSunny.14 mph52%29.98 "Hg10 mi
4:53 PM79 °FSunny.13 mph50%30.00 "Hg10 mi
Weather by CustomWeather, © 2014

See weather overviewHow to use our weather pages